This is the latest recevied weather packets stored in our database for station/object N8WEL. If no packets are shown the sender has not sent any weather packets the latest 10 day(s).
| Time | Temp. | Humidity | Pressure | Rain* | Wind** | Luminosity | Snow |
|---|---|---|---|---|---|---|---|
| 1778166290 | 10.56° C | 45% | 1013.1 hPa | 0 mm | - | - | - |
| 1778166080 | 10.56° C | 47% | 1013 hPa | 0 mm | - | - | - |
| 1778165656 | 10.56° C | 47% | 1013.1 hPa | 0 mm | - | - | - |
| 1778165344 | 10.56° C | 46% | 1013.2 hPa | 0 mm | - | - | - |
| 1778164761 | 10.56° C | 48% | 1013.2 hPa | 0 mm | - | - | - |
| 1778164690 | 10.56° C | 49% | 1013.1 hPa | 0 mm | - | - | - |
| 1778163130 | 10° C | 48% | 1013.3 hPa | 0 mm | - | - | - |
| 1778162897 | 10.56° C | 50% | 1013.2 hPa | 0 mm | - | - | - |
| 1778161929 | 10° C | 50% | 1013.3 hPa | 0 mm | - | - | - |
| 1778161652 | 9.44° C | 49% | 1013.1 hPa | 0 mm | - | - | - |
| 1778161584 | 9.44° C | 51% | 1013.2 hPa | 0 mm | - | - | - |
| 1778161063 | 9.44° C | 51% | 1013.2 hPa | 0 mm | - | - | - |
| 1778160699 | 9.44° C | 52% | 1013.2 hPa | 0 mm | - | - | - |
| 1778160403 | 8.89° C | 54% | 1013.4 hPa | 0 mm | - | - | - |
| 1778160401 | 8.89° C | 54% | 1013.4 hPa | 0 mm | - | - | - |
| 1778160100 | 8.89° C | 54% | 1013.2 hPa | 0 mm | - | - | - |
| 1778159796 | 8.89° C | 54% | 1013.3 hPa | 0 mm | - | - | - |
| 1778159499 | 8.89° C | 57% | 1013.2 hPa | 0 mm | - | - | - |
| 1778159265 | 8.89° C | 58% | 1013.2 hPa | 0 mm | - | - | - |
| 1778157968 | 7.78° C | 63% | 1013.4 hPa | 0 mm | - | - | - |
| 1778157968 | 8.33° C | 62% | 1013.3 hPa | 0 mm | - | - | - |
| 1778157095 | 7.78° C | 66% | 1013.3 hPa | 0 mm | - | - | - |
| 1778156806 | 7.78° C | 67% | 1013.3 hPa | 0 mm | - | - | - |
| 1778156805 | 7.22° C | 68% | 1013.3 hPa | 0 mm | - | - | - |
| 1778155930 | 6.67° C | 71% | 1013.2 hPa | 0 mm | - | - | - |
* Rain latest hour (hover to see other rain measurements)
** Current wind speed in m/s (hover to see current wind gust speed)